This is the latest recevied weather packets stored in our database for station/object K7NDG. If no packets are shown the sender has not sent any weather packets the latest 10 day(s).
| Time | Temp. | Humidity | Pressure | Rain* | Wind** | Luminosity | Snow |
|---|---|---|---|---|---|---|---|
| 1777559031 | 7.78° C | 93% | 1022 hPa | 0 mm | - | 77 W/m² | - |
| 1777558727 | 7.78° C | 93% | 1022.1 hPa | 0 mm | - | 73 W/m² | - |
| 1777558423 | 7.78° C | 93% | 1022.1 hPa | 0 mm | - | 66 W/m² | - |
| 1777558119 | 7.22° C | 94% | 1022.2 hPa | 0 mm | - | 57 W/m² | - |
| 1777557816 | 7.22° C | 93% | 1022 hPa | 0 mm | - | 44 W/m² | - |
| 1777557513 | 7.22° C | 93% | 1021.8 hPa | 0 mm | - | 34 W/m² | - |
| 1777557209 | 7.22° C | 93% | 1021.8 hPa | 0 mm | - | 29 W/m² | - |
| 1777556905 | 7.22° C | 93% | 1021.7 hPa | 0 mm | - | 26 W/m² | - |
| 1777556601 | 7.22° C | 93% | 1021.7 hPa | 0 mm | - | 24 W/m² | - |
| 1777556301 | 7.22° C | 93% | 1021.8 hPa | 0 mm | - | 21 W/m² | - |
| 1777555998 | 7.22° C | 93% | 1021.8 hPa | 0 mm | - | 17 W/m² | - |
| 1777555692 | 7.22° C | 93% | 1021.8 hPa | 0 mm | - | 12 W/m² | - |
| 1777555389 | 7.22° C | 93% | 1021.6 hPa | 0 mm | - | 7 W/m² | - |
| 1777555085 | 7.22° C | 93% | 1021.7 hPa | 0 mm | - | 4 W/m² | - |
| 1777554783 | 7.22° C | 93% | 1021.7 hPa | 0 mm | - | 1 W/m² | - |
| 1777554480 | 7.22° C | 93% | 1021.6 hPa | 0 mm | - | 0 W/m² | - |
| 1777554176 | 7.22° C | 93% | 1021.7 hPa | 0 mm | - | 0 W/m² | - |
| 1777553874 | 7.22° C | 93% | 1021.6 hPa | 0 mm | - | 0 W/m² | - |
| 1777553569 | 7.22° C | 93% | 1021.6 hPa | 0 mm | - | 0 W/m² | - |
| 1777553265 | 7.22° C | 93% | 1021.6 hPa | 0 mm | - | 0 W/m² | - |
| 1777552962 | 7.22° C | 93% | 1021.5 hPa | 0 mm | - | 0 W/m² | - |
| 1777552657 | 7.22° C | 93% | 1021.6 hPa | 0 mm | - | 0 W/m² | - |
| 1777552354 | 7.22° C | 93% | 1021.5 hPa | 0 mm | - | 0 W/m² | - |
| 1777552050 | 7.22° C | 93% | 1021.6 hPa | 0 mm | - | 0 W/m² | - |
| 1777551747 | 7.22° C | 93% | 1021.6 hPa | 0 mm | - | 0 W/m² | - |
* Rain latest hour (hover to see other rain measurements)
** Current wind speed in m/s (hover to see current wind gust speed)